Location: *
(13.2257°S, 48.7193°W)
Time: 10:41:38
(UTC+00:00)

Tiangong - Visible Passes

Search period start: 18 April 2026 00:00
Search period end: 28 April 2026 00:00
Orbit: 376 x 385 km, 41.5° (Epoch: 17 April)

Date Brightness Start Highest point End Pass type
(mag) Time Alt. Az. Time Alt. Az. Time Alt. Az.
20 Apr 0.6 08:09:20 10° S 08:11:06 14° SE 08:12:52 10° ESE visible
20 Apr 0.9 22:55:36 10° NW 22:56:01 13° NW 22:56:01 13° NW visible
21 Apr -2.2 08:43:43 11° SW 08:46:46 86° SE 08:49:54 10° NE visible
21 Apr -0.9 21:54:58 10° NNW 21:57:39 26° NE 21:58:27 23° ENE visible
22 Apr -0.3 07:46:07 28° ESE 07:46:07 28° ESE 07:48:26 10° ENE visible
22 Apr -0.9 22:30:11 10° WNW 22:32:59 37° SW 22:32:59 37° SW visible
23 Apr -1.3 08:20:40 32° WNW 08:21:06 33° NW 08:23:58 10° NNE visible
23 Apr -2.2 21:28:50 10° NW 21:31:57 71° NE 21:35:04 10° SE visible
24 Apr 1.3 07:23:02 10° NE 07:23:02 10° NE 07:23:05 10° NE visible
24 Apr 0.4 22:05:17 10° W 22:07:26 17° SW 22:09:36 10° S visible
